Regional Weather Roundup
Issued by NWS

Home | Current Version | Previous Version | Text Only | Print | Product List | Glossary Off
Versions: 1 2 3 4 5 6 7 8 9 10 11 12 13 14 15 16 17 18 19 20 21 22 23 24 25 26 27 28 29 30 31 32 33 34 35 36 37 38 39 40 41 42 43 44 45 46 47 48 49 50

565
ASUS43 KMKX 080021
RWRWI

WISCONSIN REGIONAL WEATHER ROUNDUP
NATIONAL WEATHER SERVICE MILWAUKEE/SULLIVAN WI
600 PM CST SUN FEB 07 2016

NOTE: "FAIR" INDICATES FEW OR NO CLOUDS BELOW 12,000 FEET WITH NO
SIGNIFICANT WEATHER AND/OR OBSTRUCTIONS TO VISIBILITY.

WIZ001-002-006>008-014>016-023>028-080100-
NORTHWEST WISCONSIN

CITY           SKY/WX    TMP DP  RH WIND       PRES   REMARKS
SUPERIOR ARPT  CLOUDY    32  26  78 NW15G25   29.58R WCI  21
6HR MIN TEMP:  32; 6HR MAX TEMP:  37;

ASHLAND        CLOUDY    34  32  92 W7        29.53R WCI  28
6HR MIN TEMP:  34; 6HR MAX TEMP:  37;

HAYWARD        LGT SNOW  30  28  92 VRB7      29.55R FOG     WCI  23
6HR MIN TEMP:  32; 6HR MAX TEMP:  36; 6HR PCP:  0.05;

SIREN          LGT SNOW  29  28  94 NW14G23   29.61R WCI  18
6HR MIN TEMP:  29; 6HR MAX TEMP:  37; 6HR PCP:  0.02;

CUMBERLAND     LGT SNOW  32  30  93 W24G31    29.57R WCI  19
RICE LAKE      LGT SNOW  34  32  92 SW8       29.58F WCI  27
6HR MIN TEMP:  34; 6HR MAX TEMP:  38;

CHETEK         LGT RAIN  35  31  86 W5        29.58S WCI  31
6HR MIN TEMP:  35; 6HR MAX TEMP:  39;

LADYSMITH      FLURRIES  35  31  88 SW7       29.58S WCI  29
6HR MIN TEMP:  35; 6HR MAX TEMP:  38;

EAU CLAIRE     CLOUDY    37  27  67 W9        29.60R WCI  30
6HR MIN TEMP:  37; 6HR MAX TEMP:  40;

MENOMONIE      CLOUDY    37  28  70 SW10      29.61S WCI  30
6HR MIN TEMP:  37; 6HR MAX TEMP:  43;

NEW RICHMOND   LGT SNOW  32  29  88 NW24G33   29.63R WCI  18
6HR MIN TEMP:  32; 6HR MAX TEMP:  40;

OSCEOLA        LGT SNOW  30  29  94 W20G28    29.67R WCI  18
6HR MIN TEMP:  30; 6HR MAX TEMP:  40;

$$

WIZ003>005-009-010-017-018-080100-
NORTH CENTRAL WISCONSIN

CITY           SKY/WX    TMP DP  RH WIND       PRES   REMARKS
MANITOWISH WTR LGT SNOW  32  32 100 SW7       29.51R WCI  26
6HR MIN TEMP:  31; 6HR MAX TEMP:  33;

ARBOR VITAE    LGT SNOW  34  32  92 SW5       29.52R WCI  30
6HR MIN TEMP:  33; 6HR MAX TEMP:  37;

WOODRUFF       LGT SNOW  34  32  92 SW5       29.52R WCI  30
6HR MIN TEMP:  33; 6HR MAX TEMP:  37;

RHINELANDER    CLOUDY    34  28  79 SW8       29.54R WCI  27
6HR MIN TEMP:  32; 6HR MAX TEMP:  35; 6HR PCP: TRACE;

EAGLE RIVER    FLURRIES  33  32  98 SW3       29.52R
LAND O LAKES   FLURRIES  33  32  97 CALM      29.52R
6HR MIN TEMP:  32; 6HR MAX TEMP:  33; 6HR PCP:  0.01;

PHILLIPS       LGT SNOW  32  30  92 SW7       29.53S WCI  26
6HR MIN TEMP:  32; 6HR MAX TEMP:  35;

TOMAHAWK       CLOUDY    33  28  81 SW3       29.55S
6HR MIN TEMP:  32; 6HR MAX TEMP:  35;

MEDFORD        CLOUDY    34  27  76 SW8       29.56S WCI  27
6HR MIN TEMP:  34; 6HR MAX TEMP:  36;

MERRILL        CLOUDY    36  28  71 W10       29.57S WCI  29
6HR MIN TEMP:  34; 6HR MAX TEMP:  37;

$$

WIZ029-030-035-036-043>047-080100-
CENTRAL WISCONSIN

CITY           SKY/WX    TMP DP  RH WIND       PRES   REMARKS
WAUSAU         CLOUDY    38  26  62 W13       29.56S WCI  30
6HR MIN TEMP:  36; 6HR MAX TEMP:  39;

MOSINEE        CLOUDY    36  28  75 W9G17     29.59S WCI  29
MARSHFIELD     CLOUDY    37  24  59 W12       29.58S WCI  29
6HR MIN TEMP:  37; 6HR MAX TEMP:  40;

STEVENS POINT  CLOUDY    36  25  65 SW7       29.60S WCI  30
6HR MIN TEMP:  36; 6HR MAX TEMP:  38;

WAUPACA        PTCLDY    39  28  63 SW10      29.62R WCI  33
6HR MIN TEMP:  40; 6HR MAX TEMP:  42;

WAUTOMA        PTCLDY    38  26  62 W10       29.64R WCI  31
6HR MIN TEMP:  38; 6HR MAX TEMP:  43;

WISC RAPIDS    CLOUDY    38  23  55 W14       29.63R WCI  30
6HR MIN TEMP:  38; 6HR MAX TEMP:  41;

CAMP DOUGLAS   CLOUDY    37  30  74 W12       29.64R WCI  30
6HR MIN TEMP:  37; 6HR MAX TEMP:  41;

$$

WIZ011>013-019>022-031-037>040-048>050-080100-
NORTHEAST WISCONSIN

CITY           SKY/WX    TMP DP  RH WIND       PRES   REMARKS
ANTIGO         CLOUDY    35  28  78 SW8       29.56S WCI  28
6HR MIN TEMP:  33; 6HR MAX TEMP:  35;

SHAWANO        CLOUDY    39  29  67 CALM      29.60S
6HR MIN TEMP:  39; 6HR MAX TEMP:  42;

OCONTO         CLOUDY    37  30  74 S5        29.60S WCI  34
6HR MIN TEMP:  37; 6HR MAX TEMP:  40;

STURGEON BAY   CLOUDY    36  28  75 S7        29.63S WCI  30
6HR MIN TEMP:  36; 6HR MAX TEMP:  39;

GREEN BAY      CLOUDY    37  30  75 S6        29.61S WCI  32
6HR MIN TEMP:  36; 6HR MAX TEMP:  40;

MANITOWOC      CLOUDY    40  30  67 S5        29.64S
6HR MIN TEMP:  40; 6HR MAX TEMP:  42;

APPLETON       MOCLDY    37  27  65 SW8       29.60R WCI  31
CLINTONVILLE   CLOUDY    36  30  80 SW6       29.60S WCI  31
OSHKOSH        PTCLDY    37  28  70 SW8       29.63R WCI  31
6HR MIN TEMP:  37; 6HR MAX TEMP:  41;

$$

WIZ032>034-041-042-053>061-080100-
SOUTHWEST WISCONSIN

CITY           SKY/WX    TMP DP  RH WIND       PRES   REMARKS
LA CROSSE      CLOUDY    38  27  64 W13       29.67R WCI  30
6HR MIN TEMP:  38; 6HR MAX TEMP:  41;

SPARTA         CLOUDY    38  27  66 W7        29.66S WCI  32
6HR MIN TEMP:  38; 6HR MAX TEMP:  42; 6HR PCP:  0.03;

VIROQUA        CLOUDY    35  28  75 W16       29.66S WCI  25
6HR MIN TEMP:  35; 6HR MAX TEMP:  39;

BOSCOBEL       PTCLDY    39  28  64 SW8       29.72R WCI  33
6HR MIN TEMP:  39; 6HR MAX TEMP:  43;

PRAIRIE DU CHI CLEAR     37  27  67 SW7       29.73S WCI  31
6HR MIN TEMP:  37; 6HR MAX TEMP:  40;

PLATTEVILLE    PTCLDY    35  30  81 SW12      29.73S WCI  27
6HR MIN TEMP:  35; 6HR MAX TEMP:  40;

$$

WIZ056-057-062-063-064-067-068-080100-
SOUTH CENTRAL WISCONSIN

CITY           SKY/WX    TMP DP  RH WIND       PRES   REMARKS
REEDSBURG      MOCLDY    36  27  69 W10       29.67R WCI  28
6HR MIN TEMP:  36; 6HR MAX TEMP:  41;

BARABOO/DELLS  PTCLDY    36  25  65 SW12      29.66R WCI  28
6HR MIN TEMP:  36; 6HR MAX TEMP:  41;

LONE ROCK      CLOUDY    37  27  67 W9        29.70S WCI  30
6HR MIN TEMP:  37; 6HR MAX TEMP:  41;

MINERAL POINT  CLOUDY    37  30  75 SW7       29.71R WCI  32
MADISON        MOCLDY    36  26  67 SW8       29.68R WCI  30
6HR MIN TEMP:  36; 6HR MAX TEMP:  41;

MIDDLETON      CLEAR     38  27  62 SW9G21    29.69R WCI  32
6HR MIN TEMP:  38; 6HR MAX TEMP:  44;

WATERTOWN      CLEAR     35  28  74 SW9       29.68R WCI  28
6HR MIN TEMP:  35; 6HR MAX TEMP:  42;

MONROE         CLEAR     36  30  80 SW17      29.72R WCI  25
JANESVILLE     CLEAR     37  27  65 W12       29.72R WCI  30
$$

WIZ051-052-058>065-066-070>072-080100-
SOUTHEAST WISCONSIN

CITY           SKY/WX    TMP DP  RH WIND       PRES   REMARKS
MILWAUKEE      PTCLDY    39  28  64 SW10      29.69R WCI  32
6HR MIN TEMP:  39; 6HR MAX TEMP:  45;

WAUKESHA       CLEAR     36  27  69 SW12      29.69R WCI  27
MILWAUKEE/TIMM CLEAR     37  27  65 SW10      29.69R WCI  30
RACINE         CLEAR     39  28  64 W8        29.71R WCI  33
6HR MIN TEMP:  39; 6HR MAX TEMP:  44;

BURLINGTON     CLEAR     35  26  71 SW10      29.71S WCI  27
6HR MIN TEMP:  35; 6HR MAX TEMP:  42;

KENOSHA        CLEAR     38  29  70 W14       29.70R WCI  30
6HR MIN TEMP:  38; 6HR MAX TEMP:  43;

FOND DU LAC    CLEAR     38  29  70 SW9       29.64S WCI  31
6HR MIN TEMP:  37; 6HR MAX TEMP:  41;

SHEBOYGAN      PTCLDY    37  29  72 SW12      29.65R WCI  29
6HR MIN TEMP:  37; 6HR MAX TEMP:  41;

WEST BEND      CLEAR     36  28  75 CALM      29.66S
JUNEAU         CLEAR     35  28  76 SW10      29.67S WCI  27
6HR MIN TEMP:  35; 6HR MAX TEMP:  40;

$$

LSZ147-162-080100-
LAKE SUPERIOR

STATION/POSITION TIME  TEMP    WIND        PRES    WAVE
                       AIR SEA DIR/SP/G            HT/PER
                 (UTC) (F)     (DEG/KT/KT) (MB)    (FT/S)
DEVILS ISLAND    0000   33     240/ 15/ 18  999.8R
PORT WING        2300   34     240/ 10/ 15 1000.0R
SAXON HARBOR     2340   35                  999.7R
$$

LMZ867-665-643>646-080100-
LAKE MICHIGAN

STATION/POSITION TIME  TEMP    WIND        PRES    WAVE
                       AIR SEA DIR/SP/G            HT/PER
                 (UTC) (F)   C1F1C2F2C3F3C4F4C5F5C6F6C7F7C8M1C9M2Ca!



USA.gov is the U.S. government's official web portal to all federal, state and local government web resources and services.